Regional Weather Roundup
Issued by NWS

Home | Current Version | Previous Version | Text Only | Print | Product List | Glossary On
Versions: 1 2 3 4 5 6 7 8 9 10 11 12 13 14 15 16 17 18 19 20 21 22 23 24 25 26 27 28
000
ASUS46 KPQR 261710
RWROR

OREGON REGIONAL WEATHER ROUNDUP
NATIONAL WEATHER SERVICE PORTLAND OR
1000 AM PDT TUE SEP 26 2017

NOTE: "FAIR" INDICATES FEW OR NO CLOUDS BELOW 12,000 FEET WITH
NO SIGNIFICANT WEATHER AND/OR OBSTRUCTIONS TO VISIBILITY.

ORZ001>013-261800-
NORTHWEST OREGON


CITY           SKY/WX    TMP DP  RH WIND       PRES   REMARKS
ASTORIA        MOSUNNY   63  59  87 NE7       30.15R
NEWPORT        SUNNY     63  59  88 NE5       30.15S
PORTLAND       MOSUNNY   63  55  75 CALM      30.15S
VANCOUVER WA   SUNNY     63  57  81 W5        30.14F
SCAPPOOSE      SUNNY     63  56  78 N3        30.15S
HILLSBORO      SUNNY     64  56  75 CALM      30.15R
AURORA         MOSUNNY   66  55  67 N8        30.15S
MCMINNVILLE    SUNNY     67  58  72 N5        30.15R
SALEM          SUNNY     65  55  70 NE7       30.13S
CORVALLIS      SUNNY     62  56  80 CALM      30.14S
EUGENE         CLOUDY    56  56 100 N6        30.14S
$$

ORZ021-028-261800-
SOUTHWEST OREGON


CITY           SKY/WX    TMP DP  RH WIND       PRES   REMARKS
NORTH BEND     SUNNY     59  56  89 CALM      30.11S
BROOKINGS      SUNNY     75  53  46 VRB5      30.00S
ROSEBURG       SUNNY     60  51  72 CALM      30.12S
GRANTS PASS    FAIR      59  48  67 CALM      30.15F
MEDFORD        SUNNY     58  48  69 CALM      30.12S
$$

ORZ014>016-041-261800-
COLUMBIA GORGE


CITY           SKY/WX    TMP DP  RH WIND       PRES   REMARKS
TROUTDALE      SUNNY     65  55  70 CALM      30.14S
THE DALLES     SUNNY     61  52  72 CALM      30.17S
$$

ORZ029>031-041-044-049-050-061>064-502-503-505>511-261800-
EASTERN OREGON


CITY           SKY/WX    TMP DP  RH WIND       PRES   REMARKS
MADRAS         SUNNY    N/A N/A N/A CALM      30.22R
REDMOND        SUNNY     57  43  59 VRB3      30.20R
BEND           SUNNY     61  46  59 CALM      30.20S
PRINEVILLE     SUNNY     55  45  67 CALM      30.20F
KLAMATH FALLS  SUNNY     58  45  62 VRB6      30.18S
LAKEVIEW       SUNNY     60  39  45 N10       30.20S
HERMISTON      SUNNY     64  52  64 NW5       30.17S
PENDLETON      CLOUDY    62  50  64 CALM      30.18R
JOHN DAY       CLOUDY    58  44  60 CALM      30.21S
MEACHAM        CLOUDY    55  46  71 CALM      30.22R
LA GRANDE      CLOUDY    54  46  74 CALM      30.22S
BAKER CITY     CLOUDY    58  44  60 CALM      30.22S
BURNS          CLOUDY    62  39  42 NE8       30.21S
ROME             N/A     62  32  32 VRB3      30.19F
ONTARIO        SUNNY     60  44  55 CALM      30.20S
$$




USA.gov is the U.S. government's official web portal to all federal, state and local government web resources and services.